AEHF-4 (USA 288)

Last updated on Sat Jul 19 2025 00:02:49 GMT+0000 (Coordinated Universal Time)

1 43651U 18079A 25199.40066359 -.00000267 00000+0 00000+0 0 9997 2 43651 1.4586 348.4747 0046274 3.0656 21.5378 1.00266487 24955
UTC large
Height (km)
Speed (km/s)
/
Latitude / Longitude
Inclination (degrees)
Orbital Period (minutes)
Azimuth
Elevation
Range (km)
Doppler Factor

Next 0 passes for location: London (51.5072 / 0.1276)

Sorry there are no passes over London.